Location: Seale
(32.2974°N, 85.1688°W)
Time: 10:17:25
(UTC+00:00)

Hubble Space Telescope - Pass Details

Date: 23 January 2021
Orbit: 536 x 539 km, 28.5° (Epoch: 26 February)

Event Time Altitude Azimuth Distance (km) Brightness Sun altitude
Rises 00:00:28 0° 261° (W) 2,674 6.4 -11.9°
Reaches altitude 10° 00:02:46 10° 256° (WSW) 1,783 5.0 -12.3°
Maximum altitude 00:06:46 50° 181° (S) 687 1.4 -13.2°
Enters shadow 00:09:42 17° 111° (ESE) 1,389 2.4 -13.7°
